When you browse on this site, cookies collect data to enhance your experience and personalize the content and advertising you see.
Visit our Privacy Policy to learn more. By continuing to use the site, you agree to this use of cookies and data.
  • In United Kingdom
  • List of Countries
  • For 7 days
  • Water Temperature
  • Weather Map
  • Weather Widgets
  • user-avatar
    Login

    Hourly Weather Idolta

    Today, 24 February, Monday

    Time Temperature Precipitation Wind Pressure Humidity
    00:00 0°C° 0 mm 4 mps 732 mmHg 86%
    01:00 -1°C° 0 mm 4 mps 732 mmHg 88%
    02:00 -1°C° 0 mm 4 mps 732 mmHg 91%
    03:00 -1°C° 0 mm 4 mps 732 mmHg 92%
    04:00 -1°C° 0 mm 4 mps 732 mmHg 93%
    05:00 -1°C° 0 mm 4 mps 732 mmHg 94%
    06:00 -1°C° 0 mm 4 mps 733 mmHg 93%
    07:00 -1°C° 0 mm 4 mps 733 mmHg 92%
    08:00 0°C° 0 mm 4 mps 734 mmHg 90%
    09:00 0°C° 0.1 mm 5 mps 735 mmHg 83%
    10:00 +1°C° 0.1 mm 5 mps 735 mmHg 75%
    11:00 +2°C° 0.1 mm 6 mps 736 mmHg 68%
    12:00 +2°C° 0 mm 6 mps 736 mmHg 64%
    13:00 +2°C° 0 mm 7 mps 737 mmHg 60%
    14:00 +2°C° 0 mm 7 mps 737 mmHg 56%
    15:00 +2°C° 0 mm 7 mps 738 mmHg 57%
    16:00 +1°C° 0 mm 6 mps 739 mmHg 59%
    17:00 +1°C° 0 mm 5 mps 739 mmHg 60%
    18:00 0°C° 0 mm 5 mps 740 mmHg 63%
    19:00 -1°C° 0 mm 4 mps 740 mmHg 67%
    20:00 -1°C° 0 mm 4 mps 741 mmHg 71%
    21:00 -1°C° 0 mm 4 mps 741 mmHg 72%
    22:00 -2°C° 0 mm 4 mps 741 mmHg 74%
    23:00 -1°C° 0 mm 3 mps 741 mmHg 75%

    Tomorrow, 25 February, Tuesday

    Time Temperature Precipitation Wind Pressure Humidity
    00:00 -1°C° 0 mm 3 mps 741 mmHg 78%
    01:00 -1°C° 0 mm 3 mps 741 mmHg 80%
    02:00 -2°C° 0 mm 2 mps 741 mmHg 82%
    03:00 -2°C° 0 mm 2 mps 741 mmHg 83%
    04:00 -2°C° 0 mm 2 mps 740 mmHg 84%
    05:00 -2°C° 0 mm 2 mps 740 mmHg 85%
    06:00 -2°C° 0 mm 2 mps 740 mmHg 84%
    07:00 -2°C° 0 mm 2 mps 739 mmHg 83%
    08:00 -2°C° 0 mm 2 mps 739 mmHg 82%
    09:00 -1°C° 0 mm 2 mps 739 mmHg 76%
    10:00 0°C° 0 mm 3 mps 738 mmHg 70%
    11:00 +1°C° 0 mm 3 mps 738 mmHg 65%
    12:00 0°C° 0 mm 4 mps 737 mmHg 67%
    13:00 +1°C° 0 mm 4 mps 737 mmHg 69%
    14:00 +1°C° 0 mm 4 mps 736 mmHg 71%
    15:00 0°C° 0.1 mm 4 mps 735 mmHg 79%
    16:00 0°C° 0.1 mm 5 mps 735 mmHg 87%
    17:00 -1°C° 0.1 mm 5 mps 734 mmHg 95%
    18:00 -1°C° 0.4 mm 5 mps 733 mmHg 96%
    19:00 -1°C° 0.4 mm 5 mps 733 mmHg 96%
    20:00 -1°C° 0.4 mm 5 mps 732 mmHg 96%
    21:00 0°C° 0.5 mm 4 mps 731 mmHg 96%
    22:00 0°C° 0.5 mm 4 mps 731 mmHg 96%
    23:00 +2°C° 0.5 mm 3 mps 730 mmHg 96%

    Day after tomorrow, 26 February, Wednesday

    Time Temperature Precipitation Wind Pressure Humidity
    00:00 +1°C° 0.4 mm 3 mps 730 mmHg 96%
    01:00 +1°C° 0.4 mm 3 mps 730 mmHg 96%
    02:00 +2°C° 0.4 mm 2 mps 730 mmHg 96%
    03:00 +1°C° 0 mm 2 mps 729 mmHg 95%
    04:00 +1°C° 0 mm 2 mps 729 mmHg 94%
    05:00 -1°C° 0 mm 2 mps 729 mmHg 93%
    06:00 -1°C° 0 mm 2 mps 729 mmHg 94%
    07:00 -1°C° 0 mm 3 mps 729 mmHg 94%
    08:00 -1°C° 0 mm 3 mps 729 mmHg 95%
    09:00 -1°C° 0 mm 4 mps 729 mmHg 89%
    10:00 0°C° 0 mm 4 mps 729 mmHg 84%
    11:00 +1°C° 0 mm 4 mps 730 mmHg 79%
    12:00 +1°C° 0 mm 5 mps 729 mmHg 75%
    13:00 +2°C° 0 mm 5 mps 729 mmHg 71%
    14:00 +2°C° 0 mm 5 mps 729 mmHg 67%
    15:00 +3°C° 0 mm 4 mps 729 mmHg 68%
    16:00 +3°C° 0 mm 4 mps 730 mmHg 70%
    17:00 +3°C° 0 mm 3 mps 730 mmHg 71%
    18:00 +2°C° 0 mm 3 mps 730 mmHg 75%
    19:00 +1°C° 0 mm 3 mps 730 mmHg 79%
    20:00 +1°C° 0 mm 2 mps 730 mmHg 83%
    21:00 +1°C° 0 mm 2 mps 730 mmHg 85%
    22:00 +1°C° 0 mm 2 mps 730 mmHg 87%
    23:00 +1°C° 0 mm 2 mps 730 mmHg 88%

    27 February, Thursday

    Time Temperature Precipitation Wind Pressure Humidity
    00:00 +1°C° 0 mm 2 mps 730 mmHg 88%
    01:00 +1°C° 0 mm 2 mps 730 mmHg 88%
    02:00 +1°C° 0 mm 2 mps 730 mmHg 88%
    03:00 +1°C° 0.1 mm 2 mps 730 mmHg 89%
    04:00 +1°C° 0.1 mm 2 mps 730 mmHg 90%
    05:00 +1°C° 0.1 mm 2 mps 729 mmHg 92%
    06:00 +1°C° 0.3 mm 2 mps 729 mmHg 93%
    07:00 +1°C° 0.3 mm 2 mps 729 mmHg 95%
    08:00 +1°C° 0.3 mm 2 mps 729 mmHg 96%
    09:00 +1°C° 0.6 mm 2 mps 729 mmHg 95%
    10:00 0°C° 0.6 mm 3 mps 729 mmHg 93%
    11:00 0°C° 0.6 mm 3 mps 729 mmHg 91%
    12:00 -1°C° 0.1 mm 4 mps 730 mmHg 85%
    13:00 0°C° 0.1 mm 4 mps 730 mmHg 80%
    14:00 0°C° 0.1 mm 5 mps 730 mmHg 74%
    15:00 0°C° 0 mm 4 mps 730 mmHg 74%
    16:00 -1°C° 0 mm 4 mps 730 mmHg 75%
    17:00 0°C° 0 mm 3 mps 730 mmHg 75%
    18:00 0°C° 0 mm 3 mps 730 mmHg 78%
    19:00 -1°C° 0 mm 3 mps 730 mmHg 80%
    20:00 -2°C° 0 mm 3 mps 731 mmHg 82%
    21:00 -3°C° 0 mm 4 mps 731 mmHg 82%
    22:00 -3°C° 0 mm 4 mps 731 mmHg 83%
    23:00 -4°C° 0 mm 4 mps 731 mmHg 83%

    28 February, Friday

    Time Temperature Precipitation Wind Pressure Humidity
    00:00 -4°C° 0 mm 4 mps 731 mmHg 84%
    01:00 -4°C° 0 mm 4 mps 731 mmHg 86%
    02:00 -5°C° 0 mm 5 mps 731 mmHg 88%
    03:00 -5°C° 0.2 mm 5 mps 731 mmHg 89%
    04:00 -5°C° 0.2 mm 5 mps 731 mmHg 89%
    05:00 -4°C° 0.2 mm 5 mps 732 mmHg 90%
    06:00 -4°C° 0 mm 5 mps 732 mmHg 88%
    07:00 -5°C° 0 mm 5 mps 732 mmHg 86%
    08:00 -5°C° 0 mm 5 mps 732 mmHg 84%
    09:00 -4°C° 0.1 mm 6 mps 733 mmHg 82%
    10:00 -4°C° 0.1 mm 6 mps 733 mmHg 80%
    11:00 -3°C° 0.1 mm 6 mps 733 mmHg 78%
    12:00 -3°C° 0 mm 6 mps 734 mmHg 77%
    13:00 -3°C° 0 mm 6 mps 734 mmHg 76%
    14:00 -2°C° 0 mm 7 mps 735 mmHg 74%
    15:00 -3°C° 0 mm 6 mps 735 mmHg 72%
    16:00 -3°C° 0 mm 6 mps 735 mmHg 71%
    17:00 -2°C° 0 mm 5 mps 735 mmHg 69%
    18:00 -4°C° 0 mm 5 mps 736 mmHg 69%
    19:00 -4°C° 0 mm 5 mps 736 mmHg 69%
    20:00 -3°C° 0 mm 4 mps 736 mmHg 69%
    21:00 -4°C° 0 mm 4 mps 736 mmHg 72%
    22:00 -4°C° 0 mm 4 mps 737 mmHg 74%
    23:00 -4°C° 0 mm 4 mps 737 mmHg 77%

    29 February, Saturday

    Time Temperature Precipitation Wind Pressure Humidity
    00:00 -5°C° 0 mm 4 mps 737 mmHg 77%
    01:00 -5°C° 0 mm 4 mps 737 mmHg 77%
    02:00 -5°C° 0 mm 4 mps 737 mmHg 77%
    03:00 -5°C° 0 mm 4 mps 737 mmHg 79%
    04:00 -5°C° 0 mm 4 mps 737 mmHg 82%
    05:00 -5°C° 0 mm 4 mps 737 mmHg 84%
    06:00 -5°C° 0.1 mm 4 mps 737 mmHg 86%
    07:00 -4°C° 0.1 mm 4 mps 737 mmHg 88%
    08:00 -4°C° 0.1 mm 4 mps 737 mmHg 90%
    09:00 -3°C° 0 mm 4 mps 738 mmHg 86%
    10:00 -3°C° 0 mm 4 mps 738 mmHg 81%
    11:00 -2°C° 0 mm 4 mps 738 mmHg 77%
    12:00 -2°C° 0 mm 5 mps 739 mmHg 73%
    13:00 -2°C° 0 mm 5 mps 739 mmHg 68%
    14:00 -2°C° 0 mm 5 mps 739 mmHg 64%
    15:00 -2°C° 0 mm 4 mps 739 mmHg 67%
    16:00 -1°C° 0 mm 3 mps 739 mmHg 70%
    17:00 -2°C° 0 mm 2 mps 739 mmHg 72%
    18:00 -2°C° 0 mm 2 mps 740 mmHg 76%
    19:00 -3°C° 0 mm 2 mps 740 mmHg 81%
    20:00 -3°C° 0 mm 2 mps 740 mmHg 85%
    21:00 -4°C° 0 mm 2 mps 740 mmHg 86%
    22:00 -4°C° 0 mm 2 mps 740 mmHg 87%
    23:00 -4°C° 0 mm 2 mps 740 mmHg 88%
    Show more